Regional Weather Roundup
Issued by NWS

Home | Current Version | Previous Version | Text Only | Print | Product List | Glossary On
Versions: 1 2 3 4 5 6 7 8 9 10 11 12 13 14 15 16 17 18 19 20 21 22 23 24 25 26 27 28 29 30 31 32 33 34 35 36 37 38 39 40 41 42 43 44 45 46 47 48 49 50
000
ASUS42 KFFC 262303
RWRGA
WEATHER ROUNDUP FOR GEORGIA
NATIONAL WEATHER SERVICE PEACHTREE CITY GA
700 PM EDT THU MAR 26 2015

NOTE: "FAIR" INDICATES FEW OR NO CLOUDS BELOW 12,000 FEET WITH NO
SIGNIFICANT WEATHER AND/OR OBSTRUCTIONS TO VISIBILITY.

* = USE WITH CAUTION. THE STATIONS MARKED WITH AN ASTERISK MAY NOT
REPORT WEATHER SUCH AS PRECIPITATION, FOG, OR THUNDER AND ARE NOT
QUALITY CONTROLLED BY NWS.

THE REMARK "TC" DENOTES TEMPERATURE READING IN DEGREES CELSIUS.

GAZ001>058-270000-
NORTH GEORGIA

CITY           SKY/WX    TMP DP  RH WIND       PRES   REMARKS
ATLANTA        CLOUDY    71  50  47 SW7       29.80F
ATHENS         CLOUDY    71  50  47 VRB5      29.79F
CHAMBLEE       CLOUDY    69  51  52 SW9       29.80S
PEACHTREE CITY CLOUDY    71  52  50 CALM      29.81F
ROME           CLOUDY    72  52  49 SW6G16    29.75F
WEST ATLANTA   CLOUDY    72  50  45 SW6       29.80S
GAINESVILLE    CLOUDY    69  50  50 SW7       29.81S
CARTERSVILLE   CLOUDY    70  51  51 CALM      29.79S


CITY           SKY/WX    TMP DP  RH WIND       PRES   REMARKS
DALTON*        CLOUDY    72  52  49 CALM      29.76F
LAWRENCEVILLE* PTCLDY    70  48  46 NW8       29.80R
KENNESAW*      MOSUNNY   70  50  49 W7        29.81S
$$

GAZ059>098-102>109-270000-
CENTRAL GEORGIA

CITY           SKY/WX    TMP DP  RH WIND       PRES   REMARKS
AUGUSTA-BUSH   CLOUDY    72  56  57 SW10      29.81S
AUGUSTA-DANIEL CLOUDY    74  55  51 SW9       29.82S
COLUMBUS       CLOUDY    71  56  58 S9        29.80F
MACON          CLOUDY    69  59  70 S8        29.81F
ROBINS AFB     CLOUDY    71  60  68 S9        29.81S


CITY           SKY/WX    TMP DP  RH WIND       PRES   REMARKS
LAGRANGE*      CLOUDY    75  57  52 SW7       29.80S
SYLVANIA*      CLOUDY    74  61  64 SW3       29.85S
MILLEDGEVILLE* CLOUDY    72  61  68 CALM      29.82R
$$

GAZ099>101-110>166-270000-
SOUTH GEORGIA

CITY           SKY/WX    TMP DP  RH WIND       PRES   REMARKS
SAVANNAH       CLOUDY    73  62  68 S9        29.86S
VALDOSTA       LGT RAIN  65  64  97 S5        29.86F
ALMA           LGT RAIN  66  64  93 SW5       29.87F FOG
ST SIMONS      LGT RAIN  66  63  90 S7        29.88R
FT STEWART     CLOUDY    74  61  64 S5        29.85R
ALBANY         CLOUDY    66  63  90 SW7       29.87R
MOODY AFB      LGT RAIN  66  64  94 SW6       29.86F
BRUNSWICK      CLOUDY    72  63  73 S6        29.88S


CITY           SKY/WX    TMP DP  RH WIND       PRES   REMARKS
BAINBRIDGE*    CLOUDY    68  64  88 SW5       29.86R
MOULTRIE*      DRIZZLE   64 N/A N/A SE3       29.83F
VIDALIA*       LGT RAIN  66  61  82 SW8       29.86F
WAYCROSS*      LGT RAIN  70  69  96 CALM      29.87S
DOUGLAS*       LGT RAIN  68  64  88 S3        29.88F
$$


USA.gov is the U.S. government's official web portal to all federal, state and local government web resources and services.